KO4T-4 Weather Reports


Display with metric or nautical units.
time (UTC)temp
F
wind
direction
speed
MPH
gust
MPH
rain 1hr
in
rain 24hr
in
rain mn
in
humidity
%
barometer
mb
20260906040005 70 0 0.0 0.0 0.00 0.00 0.00 94 1015.3
20260906035503 70 0 0.0 0.0 0.00 0.00 0.00 94 1015.3
20260906035004 71 95 0.0 1.0 0.00 0.00 0.00 94 1015.3
20260906034503 71 95 0.0 1.0 0.00 0.00 0.00 94 1015.4
20260906034004 71 0 0.0 0.0 0.00 0.00 0.00 94 1015.5
20260906033503 71 0 0.0 0.0 0.00 0.00 0.00 94 1015.4
20260906033003 71 0 0.0 0.0 0.00 0.00 0.00 94 1015.4
20260906032504 71 0 0.0 0.0 0.00 0.00 0.00 94 1015.4
20260906032003 71 0 0.0 0.0 0.00 0.00 0.00 94 1015.4
20260906031504 71 0 0.0 0.0 0.00 0.00 0.00 94 1015.3
20260906031004 71 0 0.0 0.0 0.00 0.00 0.00 93 1015.4
20260906030504 71 0 0.0 0.0 0.00 0.00 0.00 94 1015.4
20260906030004 71 0 0.0 0.0 0.00 0.00 0.00 93 1015.4
20260906025504 71 0 0.0 0.0 0.00 0.00 0.00 93 1015.4
20260906025003 72 0 0.0 0.0 0.00 0.00 0.00 93 1015.2
20260906024504 72 0 0.0 0.0 0.00 0.00 0.00 93 1015.2
20260906024003 72 34 0.0 2.0 0.00 0.00 0.00 93 1015.2
20260906023504 72 34 0.0 2.0 0.00 0.00 0.00 93 1015.2
20260906023004 72 80 0.0 1.0 0.00 0.00 0.00 93 1015.1
20260906022503 72 80 0.0 1.0 0.00 0.00 0.00 93 1015.0
20260906022004 72 0 0.0 0.0 0.00 0.00 0.00 93 1015.1
20260906021503 72 0 0.0 0.0 0.00 0.00 0.00 93 1015.2
20260906021003 72 0 0.0 0.0 0.00 0.00 0.00 93 1015.1
20260906020504 72 0 0.0 0.0 0.00 0.00 0.00 93 1015.1
20260906020003 73 0 0.0 0.0 0.00 0.00 0.00 92 1015.0
20260906015504 73 0 0.0 0.0 0.00 0.00 0.00 92 1015.1
20260906015004 73 0 0.0 0.0 0.00 0.00 0.00 92 1015.0
20260906014503 73 0 0.0 0.0 0.00 0.00 0.00 92 1014.9
20260906014004 73 0 0.0 0.0 0.00 0.00 0.00 92 1014.9
20260906013503 73 74 0.0 2.0 0.00 0.00 0.00 92 1014.9
20260906013004 73 72 0.0 2.0 0.00 0.00 0.00 91 1014.7
20260906012503 74 63 0.0 2.0 0.00 0.00 0.00 91 1014.6
20260906012004 74 0 0.0 0.0 0.00 0.00 0.00 91 1014.6
20260906011504 74 0 0.0 0.0 0.00 0.00 0.00 90 1014.5
20260906011003 74 0 0.0 0.0 0.00 0.00 0.00 90 1014.5
20260906010503 74 90 1.0 3.0 0.00 0.00 0.00 90 1014.4
20260906010004 74 89 1.0 3.0 0.00 0.00 0.00 90 1014.4
20260906005504 74 90 1.0 3.0 0.00 0.00 0.00 90 1014.5
20260906005004 75 89 1.0 4.0 0.00 0.00 0.00 90 1014.5
20260906004503 75 87 0.0 4.0 0.00 0.00 0.00 89 1014.4
20260906004004 76 81 0.0 2.0 0.00 0.00 0.00 88 1014.1
20260906003503 76 0 0.0 0.0 0.00 0.00 0.00 86 1014.0
20260906003003 76 0 0.0 0.0 0.00 0.00 0.00 85 1014.1
20260906002504 77 0 0.0 0.0 0.00 0.00 0.00 85 1014.2
20260906002003 77 0 0.0 0.0 0.00 0.00 0.00 85 1014.0
20260906001504 77 0 0.0 0.0 0.00 0.00 0.00 85 1014.0
20260906001003 77 0 0.0 0.0 0.00 0.00 0.00 85 1014.0
20260906000503 77 0 0.0 0.0 0.00 0.00 0.00 85 1014.1
20260906000004 78 0 0.0 0.0 0.00 0.00 0.00 84 1014.0
20260905235503 78 196 0.0 1.0 0.00 0.00 0.00 82 1013.9
20260905235004 79 196 0.0 1.0 0.00 0.00 0.00 81 1013.8
20260905234503 80 0 0.0 0.0 0.00 0.00 0.00 78 1013.7
20260905234004 80 0 0.0 0.0 0.00 0.00 0.00 78 1013.8
20260905233503 81 0 0.0 0.0 0.00 0.00 0.00 76 1013.9
20260905233004 82 0 0.0 0.0 0.00 0.00 0.00 75 1013.9
20260905232503 83 0 0.0 0.0 0.00 0.00 0.00 74 1013.9
20260905232004 84 208 0.0 1.0 0.00 0.00 0.00 72 1013.8
20260905231504 85 208 0.0 1.0 0.00 0.00 0.00 71 1013.7
20260905231004 85 293 0.0 1.0 0.00 0.00 0.00 67 1013.7
20260905230503 85 293 0.0 1.0 0.00 0.00 0.00 67 1013.6
20260905230003 85 288 0.0 2.0 0.00 0.00 0.00 68 1013.6
20260905225504 85 285 0.0 2.0 0.00 0.00 0.00 67 1013.7
20260905225003 85 279 0.0 2.0 0.00 0.00 0.00 66 1013.7
20260905224503 85 289 0.0 2.0 0.00 0.00 0.00 65 1013.7
20260905224004 85 296 0.0 2.0 0.00 0.00 0.00 65 1013.7
20260905223503 85 298 0.0 2.0 0.00 0.00 0.00 65 1013.7
20260905223003 85 324 1.0 2.0 0.00 0.00 0.00 65 1013.8
20260905222503 85 316 1.0 4.0 0.00 0.00 0.00 65 1013.8
20260905222004 85 309 1.0 4.0 0.00 0.00 0.00 64 1013.7
20260905221504 86 309 0.0 3.0 0.00 0.00 0.00 64 1013.7
20260905221003 86 299 1.0 3.0 0.00 0.00 0.00 65 1013.7
20260905220503 86 286 1.0 3.0 0.00 0.00 0.00 65 1013.8
20260905220004 85 295 1.0 3.0 0.00 0.00 0.00 64 1013.7
20260905215504 85 292 1.0 3.0 0.00 0.00 0.00 63 1013.8
20260905215004 86 306 1.0 3.0 0.00 0.00 0.00 63 1013.8
20260905214503 85 330 2.0 4.0 0.00 0.00 0.00 66 1014.0
20260905214003 85 308 2.0 4.0 0.00 0.00 0.00 66 1014.0
20260905213504 85 297 1.0 4.0 0.00 0.00 0.00 65 1014.0
20260905213004 85 289 1.0 4.0 0.00 0.00 0.00 65 1014.1
20260905212503 85 257 1.0 3.0 0.00 0.00 0.00 66 1014.0
20260905212003 85 233 1.0 4.0 0.00 0.00 0.00 68 1014.1
20260905211503 84 242 1.0 4.0 0.00 0.00 0.00 67 1014.0
20260905211004 84 259 0.0 4.0 0.00 0.00 0.00 67 1014.0
20260905210503 83 257 0.0 2.0 0.00 0.00 0.00 70 1014.0
20260905210004 83 228 1.0 2.0 0.00 0.00 0.00 71 1013.9
20260905205504 82 248 1.0 4.0 0.00 0.00 0.00 74 1014.0
20260905205004 82 220 1.0 5.0 0.00 0.00 0.00 73 1014.1
20260905204503 82 219 1.0 5.0 0.00 0.00 0.00 74 1014.3
20260905204004 82 228 1.0 4.0 0.00 0.00 0.00 74 1014.5
20260905203504 82 224 1.0 4.0 0.00 0.00 0.00 74 1014.6
20260905203004 81 196 1.0 3.0 0.00 0.00 0.00 77 1014.6
20260905202503 81 192 1.0 4.0 0.00 0.00 0.00 77 1014.6
20260905202003 80 209 0.0 4.0 0.00 0.00 0.00 78 1014.7
20260905201504 80 231 0.0 1.0 0.00 0.00 0.00 80 1014.6
20260905201004 80 0 0.0 0.0 0.00 0.00 0.00 80 1014.7
20260905200504 79 229 0.0 1.0 0.00 0.00 0.00 82 1014.7
20260905200004 79 221 0.0 2.0 0.00 0.00 0.00 82 1014.8
20260905195503 78 208 0.0 2.0 0.00 0.00 0.00 82 1014.8
20260905195004 78 185 0.0 2.0 0.00 0.00 0.00 82 1014.8
20260905194503 78 177 0.0 2.0 0.00 0.00 0.00 83 1014.9
20260905194004 77 175 0.0 2.0 0.00 0.00 0.00 82 1015.0
20260905193503 77 245 0.0 2.0 0.00 0.00 0.00 84 1015.3
20260905193004 77 247 0.0 2.0 0.00 0.00 0.00 83 1015.3
20260905192504 76 272 0.0 2.0 0.00 0.00 0.00 83 1015.2
20260905192004 76 263 1.0 2.0 0.00 0.00 0.00 84 1015.1
20260905191504 77 213 2.0 4.0 0.00 0.00 0.00 84 1015.1
20260905191003 77 134 2.0 7.0 0.00 0.00 0.00 83 1015.1
20260905190504 77 129 1.0 7.0 0.00 0.00 0.00 82 1014.8
20260905190004 77 119 0.0 5.0 0.00 0.00 0.00 81 1014.9
20260905185503 78 310 1.0 3.0 0.00 0.00 0.00 78 1014.7
20260905185004 78 296 2.0 3.0 0.00 0.00 0.00 76 1014.7
20260905184503 78 158 3.0 5.0 0.00 0.00 0.00 74 1014.2
20260905184004 79 159 3.0 5.0 0.00 0.00 0.00 74 1013.9
20260905183503 79 163 2.0 5.0 0.00 0.00 0.00 72 1014.2
20260905183004 79 177 1.0 5.0 0.00 0.00 0.00 74 1014.4
20260905182503 80 193 1.0 4.0 0.00 0.00 0.00 71 1014.6
20260905182004 80 33 2.0 4.0 0.00 0.00 0.00 72 1014.3
20260905181503 80 93 3.0 9.0 0.00 0.00 0.00 70 1014.5
20260905181004 80 116 2.0 9.0 0.00 0.00 0.00 72 1015.0
20260905180503 80 122 1.0 7.0 0.00 0.00 0.00 74 1015.3
20260905180004 80 117 3.0 7.0 0.00 0.00 0.00 73 1015.4
20260905175503 80 62 5.0 12.0 0.00 0.00 0.00 73 1015.4
20260905175004 80 57 8.0 13.0 0.00 0.00 0.00 73 1015.7
20260905174504 81 45 9.0 23.0 0.00 0.00 0.00 68 1015.9
20260905174003 83 29 7.0 29.0 0.00 0.00 0.00 61 1016.2
20260905173504 88 6 4.0 29.0 0.00 0.00 0.00 57 1016.4
20260905173004 92 297 2.0 10.0 0.00 0.00 0.00 60 1016.0
20260905172503 93 289 1.0 10.0 0.00 0.00 0.00 58 1015.8
20260905172004 94 283 1.0 4.0 0.00 0.00 0.00 55 1015.8
20260905171503 94 304 1.0 4.0 0.00 0.00 0.00 58 1015.9
20260905171004 94 271 2.0 4.0 0.00 0.00 0.00 59 1015.9
20260905170503 93 256 2.0 4.0 0.00 0.00 0.00 56 1016.0
20260905170004 93 281 1.0 6.0 0.00 0.00 0.00 57 1016.0
20260905165503 93 277 1.0 6.0 0.00 0.00 0.00 55 1016.1
20260905165004 94 248 1.0 5.0 0.00 0.00 0.00 59 1016.2
20260905164503 93 247 2.0 5.0 0.00 0.00 0.00 59 1016.2
20260905164004 92 239 1.0 5.0 0.00 0.00 0.00 58 1016.1
20260905163503 93 285 1.0 4.0 0.00 0.00 0.00 61 1016.2
20260905163004 92 308 1.0 4.0 0.00 0.00 0.00 59 1016.3
20260905162503 92 292 1.0 4.0 0.00 0.00 0.00 57 1016.4
20260905162004 93 295 2.0 6.0 0.00 0.00 0.00 62 1016.5
20260905161504 92 237 2.0 6.0 0.00 0.00 0.00 60 1016.6
20260905161004 92 193 2.0 5.0 0.00 0.00 0.00 59 1016.7
20260905160504 92 204 1.0 5.0 0.00 0.00 0.00 58 1016.7
20260905160004 92 223 1.0 4.0 0.00 0.00 0.00 60 1016.9
20260905155503 92 234 1.0 4.0 0.00 0.00 0.00 59 1016.9
20260905155004 92 195 1.0 5.0 0.00 0.00 0.00 58 1016.9
20260905154503 92 202 1.0 5.0 0.00 0.00 0.00 60 1016.9
20260905154004 91 223 1.0 5.0 0.00 0.00 0.00 62 1016.8
20260905153503 90 226 1.0 5.0 0.00 0.00 0.00 64 1016.8
20260905153004 90 229 1.0 5.0 0.00 0.00 0.00 63 1016.7
20260905152503 90 231 1.0 4.0 0.00 0.00 0.00 62 1016.7
20260905152004 90 245 1.0 6.0 0.00 0.00 0.00 63 1016.7
20260905151503 90 249 1.0 6.0 0.00 0.00 0.00 64 1016.7
20260905151004 90 225 1.0 4.0 0.00 0.00 0.00 67 1016.7
20260905150503 89 219 1.0 4.0 0.00 0.00 0.00 65 1016.7
20260905150004 89 220 1.0 4.0 0.00 0.00 0.00 66 1016.6
20260905145504 88 218 1.0 4.0 0.00 0.00 0.00 68 1016.7
20260905145003 88 214 1.0 4.0 0.00 0.00 0.00 71 1016.7
20260905144504 88 201 0.0 4.0 0.00 0.00 0.00 69 1016.7
20260905144004 87 232 0.0 3.0 0.00 0.00 0.00 72 1016.7
20260905143503 87 264 0.0 3.0 0.00 0.00 0.00 73 1016.7
20260905143004 86 231 0.0 4.0 0.00 0.00 0.00 74 1016.8
20260905142503 86 232 0.0 4.0 0.00 0.00 0.00 73 1016.8
20260905142004 86 242 0.0 3.0 0.00 0.00 0.00 74 1016.8
20260905141504 86 240 0.0 3.0 0.00 0.00 0.00 74 1016.7
20260905141003 85 237 0.0 2.0 0.00 0.00 0.00 75 1016.8
20260905140503 85 253 0.0 2.0 0.00 0.00 0.00 75 1016.7
20260905140004 84 251 0.0 2.0 0.00 0.00 0.00 77 1016.7
20260905135503 84 199 0.0 1.0 0.00 0.00 0.00 78 1016.8
20260905135004 84 156 0.0 2.0 0.00 0.00 0.00 79 1016.8
20260905134504 84 151 0.0 2.0 0.00 0.00 0.00 80 1016.7
20260905134004 83 139 0.0 1.0 0.00 0.00 0.00 80 1016.8
20260905133503 82 188 0.0 1.0 0.00 0.00 0.00 82 1016.8
20260905133004 81 151 0.0 1.0 0.00 0.00 0.00 83 1016.8
20260905132504 80 170 0.0 1.0 0.00 0.00 0.00 86 1016.8
20260905132004 79 271 0.0 1.0 0.00 0.00 0.00 86 1016.9
20260905131503 79 282 0.0 1.0 0.00 0.00 0.00 86 1016.9
20260905131004 79 270 0.0 1.0 0.00 0.00 0.00 87 1017.0
20260905130503 78 242 0.0 1.0 0.00 0.00 0.00 88 1017.0
20260905130004 78 258 0.0 1.0 0.00 0.00 0.00 88 1017.0
20260905125503 77 276 0.0 1.0 0.00 0.00 0.00 89 1017.1
20260905125004 77 262 0.0 1.0 0.00 0.00 0.00 90 1017.1
20260905124503 77 250 0.0 1.0 0.00 0.00 0.00 91 1017.0
20260905124004 77 262 0.0 1.0 0.00 0.00 0.00 92 1017.0
20260905123503 77 270 0.0 1.0 0.00 0.00 0.00 95 1016.9
20260905123004 76 0 0.0 0.0 0.00 0.00 0.00 96 1016.9
20260905122503 74 256 0.0 1.0 0.00 0.00 0.00 96 1017.0
20260905122004 74 256 0.0 1.0 0.00 0.00 0.00 97 1017.0
20260905121503 74 0 0.0 0.0 0.00 0.00 0.00 97 1016.9
20260905121004 73 0 0.0 0.0 0.00 0.00 0.00 97 1016.9
20260905120503 73 0 0.0 0.0 0.00 0.00 0.00 97 1016.8
20260905120003 72 0 0.0 0.0 0.00 0.00 0.00 97 1016.8
20260905115504 72 0 0.0 0.0 0.00 0.00 0.00 97 1016.7
20260905115003 72 0 0.0 0.0 0.00 0.00 0.00 97 1016.6
20260905114504 72 0 0.0 0.0 0.00 0.00 0.00 97 1016.6
20260905114003 72 0 0.0 0.0 0.00 0.00 0.00 97 1016.6
20260905113503 71 0 0.0 0.0 0.00 0.00 0.00 97 1016.4
20260905113004 71 0 0.0 0.0 0.00 0.00 0.00 97 1016.3
20260905112503 71 0 0.0 0.0 0.00 0.00 0.00 97 1016.3
20260905112004 71 0 0.0 0.0 0.00 0.00 0.00 97 1016.2
20260905111503 71 0 0.0 0.0 0.00 0.00 0.00 97 1016.1
20260905111004 71 142 0.0 1.0 0.00 0.00 0.00 97 1016.0
20260905110503 72 142 0.0 1.0 0.00 0.00 0.00 97 1015.9
20260905110004 72 0 0.0 0.0 0.00 0.00 0.00 97 1015.8
20260905105503 71 0 0.0 0.0 0.00 0.00 0.00 97 1015.8
20260905105004 71 0 0.0 0.0 0.00 0.00 0.00 97 1015.8
20260905104503 71 0 0.0 0.0 0.00 0.00 0.00 97 1015.8
20260905104003 72 0 0.0 0.0 0.00 0.00 0.00 97 1015.7
20260905103504 72 0 0.0 0.0 0.00 0.00 0.00 97 1015.7
20260905103003 72 0 0.0 0.0 0.00 0.00 0.00 97 1015.7
20260905102504 72 0 0.0 0.0 0.00 0.00 0.00 97 1015.7
20260905102004 72 0 0.0 0.0 0.00 0.00 0.00 97 1015.6
20260905101504 72 0 0.0 0.0 0.00 0.00 0.00 96 1015.7
20260905101004 72 0 0.0 0.0 0.00 0.00 0.00 96 1015.6
20260905100503 72 0 0.0 0.0 0.00 0.00 0.00 96 1015.6
20260905100004 72 0 0.0 0.0 0.00 0.00 0.00 97 1015.6
20260905095503 72 0 0.0 0.0 0.00 0.00 0.00 97 1015.6
20260905095004 72 0 0.0 0.0 0.00 0.00 0.00 97 1015.6
20260905094503 72 0 0.0 0.0 0.00 0.00 0.00 97 1015.6
20260905094004 72 0 0.0 0.0 0.00 0.00 0.00 97 1015.5
20260905093503 72 0 0.0 0.0 0.00 0.00 0.00 97 1015.5
20260905093004 72 0 0.0 0.0 0.00 0.00 0.00 96 1015.6
20260905092504 72 0 0.0 0.0 0.00 0.00 0.00 96 1015.5
20260905092004 72 0 0.0 0.0 0.00 0.00 0.00 96 1015.6
20260905091503 72 0 0.0 0.0 0.00 0.00 0.00 96 1015.6
20260905091004 72 0 0.0 0.0 0.00 0.00 0.00 97 1015.6
20260905090503 72 0 0.0 0.0 0.00 0.00 0.00 96 1015.5
20260905090004 72 0 0.0 0.0 0.00 0.00 0.00 96 1015.6
20260905085503 73 0 0.0 0.0 0.00 0.00 0.00 96 1015.7
20260905085004 72 0 0.0 0.0 0.00 0.00 0.00 96 1015.6
20260905084503 72 0 0.0 0.0 0.00 0.00 0.00 96 1015.7
20260905084003 72 0 0.0 0.0 0.00 0.00 0.00 96 1015.8
20260905083503 72 0 0.0 0.0 0.00 0.00 0.00 96 1015.8
20260905083003 72 0 0.0 0.0 0.00 0.00 0.00 96 1015.9
20260905082504 72 0 0.0 0.0 0.00 0.00 0.00 96 1015.9
20260905082004 72 0 0.0 0.0 0.00 0.00 0.00 96 1015.9
20260905081503 73 0 0.0 0.0 0.00 0.00 0.00 96 1016.0
20260905081004 73 0 0.0 0.0 0.00 0.00 0.00 96 1016.1
20260905080504 73 0 0.0 0.0 0.00 0.00 0.00 96 1016.1
20260905080004 73 0 0.0 0.0 0.00 0.00 0.00 96 1016.2
20260905075504 73 0 0.0 0.0 0.00 0.00 0.00 96 1016.2
20260905075003 73 0 0.0 0.0 0.00 0.00 0.00 96 1016.2
20260905074504 73 0 0.0 0.0 0.00 0.00 0.00 96 1016.3
20260905074003 73 0 0.0 0.0 0.00 0.00 0.00 96 1016.3
20260905073504 73 0 0.0 0.0 0.00 0.00 0.00 96 1016.4
20260905073003 73 0 0.0 0.0 0.00 0.00 0.00 96 1016.5
20260905072503 73 0 0.0 0.0 0.00 0.00 0.00 96 1016.5
20260905072004 73 0 0.0 0.0 0.00 0.00 0.00 96 1016.5
20260905071504 73 0 0.0 0.0 0.00 0.00 0.00 96 1016.5
20260905071004 73 0 0.0 0.0 0.00 0.00 0.00 95 1016.5
20260905070503 73 0 0.0 0.0 0.00 0.00 0.00 95 1016.5
20260905070004 73 284 0.0 2.0 0.00 0.00 0.00 95 1016.6
20260905065503 73 289 0.0 2.0 0.00 0.00 0.00 95 1016.6
20260905065003 74 291 0.0 2.0 0.00 0.00 0.00 95 1016.6
20260905064503 74 0 0.0 0.0 0.00 0.00 0.00 95 1016.6
20260905064004 74 0 0.0 0.0 0.00 0.00 0.00 95 1016.6
20260905063504 74 0 0.0 0.0 0.00 0.00 0.00 95 1016.7
20260905063004 74 0 0.0 0.0 0.00 0.00 0.00 95 1016.8
20260905062503 74 0 0.0 0.0 0.00 0.00 0.00 95 1016.9
20260905062004 74 0 0.0 0.0 0.00 0.00 0.00 95 1017.0
20260905061503 74 0 0.0 0.0 0.00 0.00 0.00 95 1017.1
20260905061004 74 89 0.0 1.0 0.00 0.00 0.00 95 1017.1
20260905060503 74 91 0.0 1.0 0.00 0.00 0.00 95 1017.2
20260905060004 74 109 0.0 1.0 0.00 0.00 0.00 95 1017.3
20260905055504 74 0 0.0 0.0 0.00 0.00 0.00 95 1017.4
20260905055004 74 0 0.0 0.0 0.00 0.00 0.00 94 1017.4
20260905054503 74 0 0.0 0.0 0.00 0.00 0.00 94 1017.4
20260905054004 74 0 0.0 0.0 0.00 0.00 0.00 94 1017.5
20260905053504 74 0 0.0 0.0 0.00 0.00 0.00 94 1017.6
20260905053003 74 0 0.0 0.0 0.00 0.00 0.00 94 1017.6
20260905052503 74 0 0.0 0.0 0.00 0.00 0.00 94 1017.6
20260905052004 74 0 0.0 0.0 0.00 0.00 0.00 94 1017.7
20260905051504 74 0 0.0 0.0 0.00 0.00 0.00 94 1017.7
20260905051004 75 0 0.0 0.0 0.00 0.00 0.00 94 1017.7
20260905050503 75 0 0.0 0.0 0.00 0.00 0.00 93 1017.7
20260905050004 75 0 0.0 0.0 0.00 0.00 0.00 93 1017.6
20260905045503 75 0 0.0 0.0 0.00 0.00 0.00 93 1017.6
20260905045004 75 0 0.0 0.0 0.00 0.00 0.00 93 1017.6
20260905044504 75 0 0.0 0.0 0.00 0.00 0.00 93 1017.6
20260905044004 75 0 0.0 0.0 0.00 0.00 0.00 93 1017.6
20260905043504 75 138 0.0 1.0 0.00 0.00 0.00 93 1017.5
20260905043003 75 138 0.0 1.0 0.00 0.00 0.00 93 1017.5
20260905042504 75 0 0.0 0.0 0.00 0.00 0.00 93 1017.6
20260905042003 76 0 0.0 0.0 0.00 0.00 0.00 93 1017.6
20260905041504 76 142 0.0 1.0 0.00 0.00 0.00 92 1017.6
20260905041004 76 142 0.0 1.0 0.00 0.00 0.00 92 1017.6
20260905040503 76 142 0.0 1.0 0.00 0.00 0.00 92 1017.5